Location: Bouysse
(45.3674°N, 1.8947°E)
Time: 07:31:54
(UTC+00:00)

STARLINK-54 - Pass Details

Date: 07 June 2020
Orbit: 434 x 436 km, 53.0° (Epoch: 05 July)

Event Time Altitude Azimuth Distance (km) Brightness Sun altitude
Exits shadow 01:54:13 20° 149° (SSE) 1,056 4.8 -16.3°
Drops below altitude 10° 01:57:29 10° 83° (E) 1,545 6.4 -16.0°
Enters shadow 02:51:52 -73° 239° (WSW) 12,655 10.4 -10.4°
Maximum altitude 03:31:36 61° 331° (NNW) 498 3.5 -5.5°
